Location: Fort Wayne
(41.1310°N, 85.1290°W)
Time: 08:09:24
(UTC-04:00)

Oscar 19 - Visible Passes

Search period start: 21 April 2014 00:00
Search period end: 01 May 2014 00:00
Orbit: 775 x 791 km, 98.5° (Epoch: 20 April)

Date Brightness Start Highest point End Pass type
(mag) Time Alt. Az. Time Alt. Az. Time Alt. Az.
21 Apr 11.1 03:32:10 10° NNE 03:36:19 58° N 03:36:19 58° N visible
21 Apr 12.7 05:14:10 10° NW 05:15:55 12° WNW 05:16:54 11° WNW visible
22 Apr 11.8 03:00:48 10° NNE 03:04:31 39° ENE 03:04:31 39° ENE visible
22 Apr 12.1 04:40:56 10° NNW 04:44:50 22° WNW 04:45:06 22° WNW visible
23 Apr 12.6 02:29:55 10° NE 02:32:43 22° ENE 02:32:43 22° ENE visible
23 Apr 11.3 04:08:45 10° N 04:13:18 40° WNW 04:13:18 40° WNW visible
24 Apr 13.2 02:00:14 10° ENE 02:00:54 11° ENE 02:00:54 11° ENE visible
24 Apr 10.9 03:36:59 10° N 03:41:29 65° NNW 03:41:29 65° NNW visible
24 Apr 12.8 05:19:43 10° NW 05:20:39 11° WNW 05:21:36 10° WNW visible
25 Apr 11.5 03:05:33 10° NNE 03:09:40 46° ENE 03:09:40 46° ENE visible
25 Apr 12.2 04:45:54 10° NNW 04:49:35 20° WNW 04:50:16 19° WNW visible
26 Apr 12.4 02:34:34 10° NE 02:37:52 25° ENE 02:37:52 25° ENE visible
26 Apr 11.4 04:13:38 10° N 04:18:22 37° WNW 04:18:27 37° WNW visible
27 Apr 13.1 02:04:33 10° ENE 02:06:03 13° ENE 02:06:03 13° ENE visible
27 Apr 10.7 03:41:48 10° N 03:46:38 68° NW 03:46:38 68° NW visible
28 Apr 11.2 03:10:19 10° NNE 03:14:49 55° ENE 03:14:49 55° ENE visible
28 Apr 12.3 04:50:53 10° NNW 04:54:20 18° WNW 04:55:24 17° WNW visible
29 Apr 12.2 02:39:15 10° NE 02:43:00 29° ENE 02:43:00 29° ENE visible
29 Apr 11.5 04:18:31 10° N 04:23:08 33° WNW 04:23:35 33° WNW visible
30 Apr 12.9 02:08:59 10° NE 02:11:10 15° E 02:11:10 15° E visible
30 Apr 10.7 03:46:38 10° N 03:51:45 64° WNW 03:51:45 64° WNW visible
